Probability
0 0 1 2 3 4 5 6 6 6 4 3 3 5 8 9 9 10 10 10 10 9 8 6 4 3 3 3 1 0 0 0 0 0 0 0 0 0 0 0 0 0 0
0 0 0 1 2 3 3 4 4 3 2 1 1 3 4 5 5 5 5 5 6 6 5 4 3 2 1 1 0 0 0 0 0 0 0 0 0 0 0 0 0 0 0
0 0 0 0 1 1 1 1 1 1 0 0 0 0 1 1 1 2 1 1 1 2 1 1 1 1 0 0 0 0 0 0 0 0 0 0 0 0 0 0 0 0 0
0 0 0 0 0 0 0 0 0 0 0 0 0 0 0 0 0 0 0 0 0 0 0 0 0 0 0 0 0 0 0 0 0 0 0 0 0 0 0 0 0 0 0
0 0 0 0 0 0 0 0 0 0 0 0 0 0 0 0 0 0 0 0 0 0 0 0 0 0 0 0 0 0 0 0 0 0 0 0 0 0 0 0 0 0 0
0 0 0 0 0 0 0 0 0 0 0 0 0 0 0 0 0 0 0 0 0 0 0 0 0 0 0 0 0 0 0 0 0 0 0 0 0 0 0 0 0 0 0
0 0 0 0 0 0 0 0 0 0 0 0 0 0 0 0 0 0 0 0 0 0 0 0 0 0 0 0 0 0 0 0 0 0 0 0 0 0 0 0 0 0 0
0 0 0 0 0 0 0 0 0 0 0 0 0 0 0 0 0 0 0 0 0 0 0 0 0 0 0 0 0 0 0 0 0 0 0 0 0 0 0 0 0 0 0
0 0 0 0 0 0 0 0 0 0 0 0 0 0 0 0 0 0 0 0 0 0 0 0 0 0 0 0 0 0 0 0 0 0 0 0 0 0 0 0 0 0 0
0 0 0 0 0 0 0 0 0 0 0 0 0 0 0 0 0 0 0 0 0 0 0 0 0 0 0 0 0 0 0 0 0 0 0 0 0 0 0 0 0 0 0
0 0 0 0 0 0 0 0 0 0 0 0 0 0 0 0 0 0 0 0 0 0 0 0 0 0 0 0 0 0 0 0 0 0 0 0 0 0 0 0 0 0 0
0 0 0 0 0 0 0 0 0 0 0 0 0 0 0 0 0 0 0 0 0 0 0 0 0 0 0 0 0 0 0 0 0 0 0 0 0 0 0 0 0 0 0
0 0 0 0 0 0 0 0 0 0 0 0 0 0 0 0 0 0 0 0 0 0 0 0 0 0 0 0 0 0 0 0 0 0 0 0 0 0 0 0 0 0 0
0 0 0 0 0 0 0 0 0 0 0 0 0 0 0 0 0 0 0 0 0 0 0 0 0 0 0 0 0 0 0 0 0 0 0 0 0 0 0 0 0 0 0
0 0 0 0 0 0 0 0 0 0 0 0 0 0 0 0 0 0 0 0 0 0 0 0 0 0 0 0 0 0 0 0 0 0 0 0 0 0 0 0 0 0 0
0 0 0 0 0 0 0 0 0 0 0 0 0 0 0 0 0 0 0 0 0 0 0 0 0 0 0 0 0 0 0 0 0 0 0 0 0 0 0 0 0 0 0
0 0 0 0 0 0 0 0 0 0 0 0 0 0 0 0 0 0 0 0 0 0 0 0 0 0 0 0 0 0 0 0 0 0 0 0 0 0 0 0 0 0 0
0 0 0 0 0 0 0 0 0 0 0 0 0 0 0 0 0 0 0 0 0 0 0 0 0 0 0 0 0 0 0 0 0 0 0 0 0 0 0 0 0 0 0
0 0 0 0 0 0 0 0 0 0 0 0 0 0 0 0 0 0 0 0 0 0 0 0 0 0 0 0 0 0 0 0 0 0 0 0 0 0 0 0 0 0 0
0 0 0 0 0 0 0 0 0 0 0 0 0 0 0 0 0 0 0 0 0 0 0 0 0 0 0 0 0 0 0 0 0 0 0 0 0 0 0 0 0 0 0
0 0 0 0 0 0 0 0 0 0 0 0 0 0 0 0 0 0 0 0 0 0 0 0 0 0 0 0 0 0 0 0 0 0 0 0 0 0 0 0 0 0 0
0 0 0 0 0 0 0 0 0 0 0 0 0 0 0 0 0 0 0 0 0 0 0 0 0 0 0 0 0 0 0 0 0 0 0 0 0 0 0 0 0 0 0
0 0 0 0 0 0 0 0 0 0 0 0 0 0 0 0 0 0 0 0 0 0 0 0 0 0 0 0 0 0 0 0 0 0 0 0 0 0 0 0 0 0 0
0 0 0 0 0 0 0 0 0 0 0 0 0 0 0 0 0 0 0 0 0 0 0 0 0 0 0 0 0 0 0 0 0 0 0 0 0 0 0 0 0 0 0
0 0 0 0 0 0 0 0 0 0 0 0 0 0 0 0 0 0 0 0 0 0 0 0 0 0 0 0 0 0 0 0 0 0 0 0 0 0 0 0 0 0 0
0 0 0 0 0 0 0 0 0 0 0 0 0 0 0 0 0 0 0 0 0 0 0 0 0 0 0 0 0 0 0 0 0 0 0 0 0 0 0 0 0 0 0
Wind_Speed
10 9 8 8 7 7 7 7 6 6 6 5 5 4 3 2 2 2 3 5 6 6 6 7 6 5 4 4 4 4 4 3 3 2 2 2 2 2 2 2 2 4 5
10 9 9 8 8 8 8 8 7 7 7 7 6 6 5 4 3 3 2 3 4 5 6 6 6 5 5 4 4 4 4 4 3 3 3 2 2 1 2 2 2 2 3
9 10 10 10 10 10 10 9 9 8 8 8 8 7 6 5 4 3 3 3 3 4 4 5 5 5 5 4 5 4 4 4 3 3 3 2 2 2 3 3 4 3 3
9 10 10 11 10 10 10 9 9 9 9 8 8 7 7 6 5 4 3 2 3 3 3 4 4 5 5 5 5 5 5 4 4 3 3 3 3 2 2 3 4 3 3
9 10 10 9 10 10 10 10 10 10 9 9 9 9 8 7 7 5 3 3 3 3 3 3 2 2 2 2 3 5 5 4 4 4 4 4 3 3 2 2 4 4 5
9 10 9 9 9 10 10 10 10 10 10 9 9 9 9 7 9 8 5 3 3 4 3 3 3 3 4 4 4 4 2 3 4 4 4 4 4 4 3 3 4 4 4
9 9 9 9 9 9 9 10 9 9 9 9 9 9 9 9 10 8 6 3 4 4 3 2 3 4 4 6 8 9 8 7 3 2 5 5 5 4 4 4 4 4 5
9 9 9 9 9 9 9 9 9 8 8 8 8 8 7 10 12 9 5 4 5 4 4 3 3 4 5 6 8 8 8 7 4 4 6 6 6 4 4 5 6 7 6
8 8 8 9 8 9 9 9 8 8 7 7 7 8 8 9 12 10 6 4 4 5 5 4 3 4 5 2 7 9 9 8 10 13 13 11 11 9 4 3 5 5 5
7 7 8 8 8 8 9 8 7 6 6 6 7 7 8 8 12 11 7 3 4 5 4 5 6 5 4 1 5 8 9 8 8 9 8 8 8 7 4 2 2 3 5
5 6 6 7 7 8 7 7 7 6 6 7 7 7 8 9 10 12 10 4 4 4 4 4 4 5 4 3 1 5 7 8 7 7 7 6 6 6 6 6 5 4 3
4 4 5 6 6 6 7 7 7 7 6 7 7 7 6 7 9 10 11 9 5 5 4 4 5 6 5 3 4 9 7 5 6 5 5 5 5 6 6 7 8 8 7
3 3 4 5 5 6 6 7 6 6 6 6 6 6 6 6 6 8 9 10 8 6 6 9 8 7 7 7 10 7 5 4 5 5 5 5 5 6 6 5 7 8 9
2 2 2 3 4 5 4 5 5 6 6 6 6 6 6 6 7 6 4 5 6 7 7 8 9 9 8 8 7 4 3 4 4 5 5 5 5 4 4 3 4 4 6
2 2 1 2 2 3 3 4 5 6 6 6 6 5 6 6 8 9 6 5 4 4 4 5 5 5 5 5 5 5 5 5 5 5 5 5 4 4 3 3 2 3 4
2 1 1 1 1 1 1 2 2 2 4 6 8 7 5 7 7 8 9 9 7 3 4 5 5 5 5 5 5 5 5 4 4 4 4 4 4 4 4 3 3 3 4
2 2 1 1 0 0 1 2 2 4 4 3 6 8 8 7 7 7 6 6 5 2 5 6 5 5 5 4 4 4 4 4 3 4 4 4 3 3 3 3 3 4 4
3 2 2 2 1 1 1 1 2 2 2 3 4 6 6 6 7 6 4 1 4 4 5 5 5 4 4 4 4 4 4 4 3 3 3 3 3 3 3 3 3 3 3
4 3 3 2 2 2 1 1 0 1 1 1 2 4 3 2 3 4 3 3 4 4 4 4 4 4 3 3 3 3 3 3 3 3 3 3 3 3 3 3 4 3 2
4 3 3 4 3 3 2 2 1 0 0 1 1 2 1 1 1 3 3 3 3 3 3 3 3 2 2 2 2 2 2 3 3 3 3 3 2 2 3 3 3 4 3
4 5 7 5 4 3 3 3 2 2 1 1 1 2 2 1 1 2 2 2 2 2 2 2 2 2 1 1 1 2 2 2 2 2 3 3 3 3 2 2 3 3 3
4 4 5 5 4 4 4 4 3 3 3 3 2 4 4 3 1 1 1 2 2 1 1 2 2 2 1 1 2 2 2 2 3 3 3 3 3 3 3 3 3 3 3
5 5 5 5 5 4 5 5 4 4 4 4 3 4 5 4 3 3 3 3 3 3 3 3 3 3 3 2 2 2 2 2 2 2 3 3 3 3 3 3 4 4 4
6 6 5 5 5 5 6 6 5 5 5 5 5 5 5 5 4 5 4 4 4 4 4 4 4 4 5 4 3 3 3 1 2 3 3 3 3 3 3 3 4 5 4
6 6 6 5 5 5 6 6 6 6 6 6 6 5 6 6 6 5 5 5 6 5 6 6 5 5 7 7 5 4 4 2 2 2 4 4 4 4 4 4 4 5 5
7 7 6 5 5 5 6 6 6 6 6 6 6 6 6 6 6 6 6 6 6 6 7 6 7 8 8 7 7 6 7 6 5 5 5 4 5 5 5 5 6 5 6
Wind_Direction
12 11 16 18 20 21 24 23 25 31 33 39 44 54 75 91 126 164 175 180 186 187 187 187 190 187 185 185 190 194 198 204 209 173 166 184 192 197 168 201 183 189 150
14 16 22 25 27 30 31 26 28 34 36 38 44 50 57 65 77 100 132 164 179 180 176 175 175 172 171 174 178 183 183 192 194 179 164 163 166 139 155 160 165 159 133
19 21 26 30 30 32 33 31 30 35 39 41 44 44 46 51 61 79 97 115 139 157 166 168 168 166 167 170 175 175 177 177 177 174 145 141 150 147 155 148 138 130 125
25 27 29 30 30 34 36 36 36 38 40 39 42 41 40 41 42 60 87 98 107 121 137 145 153 161 170 170 172 171 167 162 163 159 150 148 137 145 162 151 133 122 113
28 31 30 30 32 34 35 36 38 37 39 37 40 38 34 31 30 27 56 86 96 106 112 119 123 119 124 166 172 165 162 164 161 159 152 145 138 145 141 145 131 122 93
30 31 29 31 33 31 32 34 34 35 36 37 36 35 34 30 25 30 27 80 89 91 95 108 128 144 128 124 93 82 98 155 154 149 145 138 126 122 129 143 142 144 113
33 33 30 31 32 29 31 33 31 34 34 34 32 30 31 30 29 37 33 59 79 79 85 103 122 132 149 136 129 125 94 59 30 116 124 116 120 124 136 129 116 102 95
36 34 31 29 31 30 31 30 27 30 32 29 27 25 27 29 28 32 24 71 82 83 85 96 124 137 132 143 142 126 112 94 68 90 96 92 88 101 103 103 108 110 105
35 32 31 30 30 29 29 28 25 26 29 29 29 24 23 29 27 25 15 76 87 85 82 77 86 108 90 132 139 126 114 99 71 65 66 77 68 46 27 134 143 142 123
35 32 33 32 30 28 26 24 24 26 25 28 36 32 30 29 28 24 12 74 85 85 81 81 69 79 83 353 150 138 130 123 124 121 115 125 108 89 11 69 104 131 130
43 39 36 35 36 30 24 24 24 27 27 29 38 39 38 33 30 31 23 46 80 87 77 71 73 78 81 23 44 122 124 133 131 124 113 104 95 85 72 62 51 42 83
63 54 46 39 35 33 32 28 27 24 30 33 35 38 35 39 34 34 39 40 37 85 81 76 79 83 89 70 82 102 115 136 130 127 117 107 98 89 79 75 73 68 64
96 71 57 55 47 37 33 31 28 24 25 28 28 27 30 32 39 46 53 54 45 69 74 72 79 90 106 95 92 110 148 137 126 122 112 101 94 97 98 92 88 82 75
131 96 73 59 54 49 36 30 30 22 20 22 22 21 24 34 24 18 47 76 82 85 91 92 84 74 84 95 113 116 103 90 104 109 108 111 112 110 108 109 113 115 98
159 142 105 69 52 42 52 35 24 43 24 7 11 16 17 24 19 10 15 42 56 75 99 103 100 99 94 94 93 91 101 113 109 114 122 123 122 117 108 95 91 110 115
176 154 133 115 75 22 30 105 119 48 55 37 26 12 47 39 26 38 46 50 52 54 98 95 91 90 93 98 104 104 100 100 108 115 118 121 125 126 124 117 116 114 116
220 188 183 202 177 351 11 11 80 150 160 92 53 41 39 35 39 45 50 58 45 42 95 93 92 91 92 94 96 100 99 99 103 113 120 123 124 126 126 126 126 127 129
225 193 217 209 228 258 341 16 19 22 74 113 105 74 53 48 44 31 347 206 89 77 82 88 91 93 94 95 96 100 105 111 114 114 116 119 126 131 133 139 136 135 135
216 209 208 216 222 234 237 255 358 34 45 67 101 118 113 132 107 37 350 76 85 87 87 88 89 91 91 92 93 101 108 111 115 121 116 119 127 133 134 139 122 110 168
212 200 232 228 222 219 218 226 231 237 55 78 71 67 113 178 107 89 78 78 92 95 98 100 95 93 97 98 105 120 129 129 135 136 127 130 128 132 138 149 152 164 167
215 190 200 229 231 230 230 232 228 227 229 190 115 88 353 321 77 89 96 104 108 118 121 122 127 131 122 131 142 149 159 149 147 145 142 144 141 140 143 153 161 166 158
220 217 215 225 227 228 233 231 229 227 221 214 185 160 188 235 206 188 171 164 156 156 157 184 179 159 171 190 197 191 178 169 165 165 158 155 159 163 166 172 175 174 174
227 225 225 225 227 217 229 233 228 228 225 218 209 198 195 212 210 210 204 193 190 192 189 203 201 186 188 196 210 231 217 184 177 185 185 179 187 185 187 185 188 196 194
223 226 231 232 230 232 231 231 227 225 227 224 217 214 211 210 212 210 209 200 199 201 200 207 212 202 196 199 203 210 214 183 193 194 213 212 206 203 201 199 203 203 201
224 228 232 236 235 234 236 235 232 227 224 225 225 220 216 212 211 207 204 201 203 207 205 206 207 208 207 207 209 202 133 107 285 274 201 215 213 212 214 208 208 206 207
223 229 234 237 238 240 240 239 237 234 231 228 226 225 221 217 214 208 202 200 201 203 205 207 211 210 209 214 210 177 160 185 208 253 255 221 210 210 209 211 208 212 208